This is the latest recevied weather packets stored in our database for station/object EA5JUX. If no packets are shown the sender has not sent any weather packets the latest 10 day(s).
| Time | Temp. | Humidity | Pressure | Rain* | Wind** | Luminosity | Snow |
|---|---|---|---|---|---|---|---|
| 1787843515 | 27.22° C | 70% | 1009.3 hPa | 0 mm | - | - | - |
| 1787843201 | 27.22° C | 70% | 1009.2 hPa | 0 mm | - | - | - |
| 1787842900 | 27.78° C | 69% | 1009.2 hPa | 0 mm | - | - | - |
| 1787842601 | 27.78° C | 68% | 1008.9 hPa | 0 mm | - | - | - |
| 1787842300 | 27.78° C | 67% | 1009 hPa | 0 mm | - | - | - |
| 1787842001 | 27.22° C | 69% | 1009.1 hPa | 0 mm | - | - | - |
| 1787841701 | 27.78° C | 67% | 1009.2 hPa | 0 mm | - | - | - |
| 1787841401 | 27.78° C | 67% | 1009.3 hPa | 0 mm | - | - | - |
| 1787841101 | 27.78° C | 67% | 1009.5 hPa | 0 mm | - | - | - |
| 1787840811 | 28.33° C | 67% | 1009.6 hPa | 0 mm | - | - | - |
| 1787840501 | 27.78° C | 69% | 1009.5 hPa | 0 mm | - | - | - |
| 1787840201 | 28.33° C | 68% | 1010 hPa | 0 mm | - | - | - |
| 1787839900 | 28.33° C | 66% | 1010.1 hPa | 0 mm | - | - | - |
| 1787839601 | 27.78° C | 65% | 1009.8 hPa | 0 mm | - | - | - |
| 1787839320 | 28.33° C | 65% | 1010.3 hPa | 0 mm | - | - | - |
| 1787839001 | 28.33° C | 66% | 1010.3 hPa | 0 mm | - | - | - |
| 1787838700 | 27.78° C | 66% | 1010.4 hPa | 0 mm | - | - | - |
| 1787838401 | 27.78° C | 67% | 1010.4 hPa | 0 mm | - | - | - |
| 1787838100 | 27.78° C | 66% | 1010.4 hPa | 0 mm | - | - | - |
| 1787837817 | 27.78° C | 65% | 1010.6 hPa | 0 mm | - | - | - |
| 1787837501 | 27.78° C | 66% | 1010.4 hPa | 0 mm | - | - | - |
| 1787837201 | 27.22° C | 68% | 1010.5 hPa | 0 mm | - | - | - |
| 1787836918 | 27.22° C | 68% | 1010.4 hPa | 0 mm | - | - | - |
| 1787836601 | 27.78° C | 67% | 1010.6 hPa | 0 mm | - | - | - |
| 1787836311 | 28.33° C | 64% | 1010.6 hPa | 0 mm | - | - | - |
* Rain latest hour (hover to see other rain measurements)
** Current wind speed in m/s (hover to see current wind gust speed)